Location: Mauries
(43.6188°N, 0.3322°W)
Time: 05:01:56
(UTC+00:00)

Cosmos 2278 Rocket - Pass Details

Date: 14 January 2026
Orbit: 839 x 846 km, 71.0° (Epoch: 15 February)

Event Time Altitude Azimuth Distance (km) Brightness Sun altitude
Rises 06:52:39 0° 230° (SW) 3,381 5.1 -7.3°
Reaches altitude 10° 06:55:18 10° 240° (WSW) 2,451 4.3 -6.8°
Maximum altitude 07:00:24 34° 305° (NW) 1,348 2.8 -6.0°
Drops below altitude 10° 07:05:32 10° 10° (N) 2,468 4.5 -5.1°
Sets 07:08:13 0° 19° (NNE) 3,408 5.3 -4.7°
